sat.trackr.live / text

‹ back to catalog

STARLINK-35535

NORAD 66342 · 2025-253Z

PAYLOAD ACTIVE UNKNOWN

§ Identity

Operator
Country
US
Launch date
2025-11-06
Launch site
AFETR
Launch vehicle
Mass (kg)
RCS (m²)

Purposes: comms

External: N2YO · Heavens-Above · Gunter

§ Orbital elements

Epoch: 2026-09-20T05:10:16.594176Z

Period
94.27 min
Inclination
43.0004°
Eccentricity
0.0001412
Mean motion
15.27592929 rev/d
Perigee alt
482.0 km
Apogee alt
484.0 km
Semi-major
6,861.1 km
B*
4.0137e-4
RAAN
194.0171°
Arg perigee
268.1119°
Mean anomaly
91.9570°
Rev number
4,999

§ Raw data

STARLINK-355351 66342U 25253Z   26263.21546984  .00010803  00000+0  40137-3 0  99952 66342  43.0004 194.0171 0001412 268.1119  91.9570 15.27592929 49996

JSON: /api/v1/satellites/66342 · /tle

For live sub-satellite position, see the globe view (requires WebGL).

§ Visibility from observer

Set your observer location to see the next 7 days of passes ≥ 10°. The values pass through the URL so the page stays shareable.

No JS? Fill the form by hand. The geolocation button needs JavaScript.